When you browse on this site, cookies collect data to enhance your experience and personalize the content and advertising you see.
Visit our Privacy Policy to learn more. By continuing to use the site, you agree to this use of cookies and data.
  • In Hungary
  • List of Countries
  • For 7 days
  • Water Temperature
  • Satellite Maps
  • Weather Map
  • News
  • Weather Widgets
  • user-avatar
    Login

    Hourly Weather Kamareddi

    Today, 17 July, Wednesday

    Time Temperature Precipitation Wind Pressure Humidity
    00:00 +27°C° 0.3 mm 3 mps 711 mmHg 83%
    01:00 +27°C° 0.3 mm 3 mps 710 mmHg 85%
    02:00 +26°C° 0.3 mm 3 mps 710 mmHg 86%
    03:00 +26°C° 0.1 mm 3 mps 710 mmHg 86%
    04:00 +26°C° 0.1 mm 3 mps 710 mmHg 86%
    05:00 +26°C° 0 mm 3 mps 710 mmHg 89%
    06:00 +27°C° 0 mm 4 mps 710 mmHg 85%
    07:00 +28°C° 0 mm 5 mps 710 mmHg 81%
    08:00 +29°C° 0 mm 5 mps 711 mmHg 77%
    09:00 +29°C° 0.5 mm 5 mps 711 mmHg 74%
    10:00 +30°C° 0.5 mm 5 mps 711 mmHg 71%
    11:00 +33°C° 0 mm 5 mps 712 mmHg 66%
    12:00 +33°C° 0.3 mm 4 mps 711 mmHg 64%
    13:00 +34°C° 0.3 mm 4 mps 710 mmHg 62%
    14:00 +34°C° 0.3 mm 4 mps 710 mmHg 59%
    15:00 +34°C° 0.3 mm 3 mps 710 mmHg 61%
    16:00 +34°C° 0.3 mm 3 mps 709 mmHg 64%
    17:00 +34°C° 0.3 mm 2 mps 709 mmHg 66%
    18:00 +31°C° 0.1 mm 2 mps 709 mmHg 68%
    19:00 +30°C° 0.1 mm 2 mps 710 mmHg 70%
    20:00 +29°C° 0.1 mm 2 mps 710 mmHg 73%
    21:00 +29°C° 0 mm 2 mps 710 mmHg 73%
    22:00 +28°C° 0 mm 2 mps 710 mmHg 72%
    23:00 +28°C° 0 mm 2 mps 710 mmHg 72%

    Tomorrow, 18 July, Thursday

    Time Temperature Precipitation Wind Pressure Humidity
    00:00 +28°C° 0 mm 2 mps 709 mmHg 74%
    01:00 +27°C° 0 mm 2 mps 709 mmHg 76%
    02:00 +27°C° 0 mm 2 mps 708 mmHg 78%
    03:00 +27°C° 0 mm 3 mps 708 mmHg 79%
    04:00 +27°C° 0 mm 3 mps 709 mmHg 81%
    05:00 +26°C° 0 mm 4 mps 709 mmHg 82%
    06:00 +27°C° 0 mm 5 mps 709 mmHg 80%
    07:00 +28°C° 0 mm 5 mps 710 mmHg 79%
    08:00 +29°C° 0 mm 6 mps 710 mmHg 77%
    09:00 +30°C° 0.5 mm 6 mps 710 mmHg 73%
    10:00 +32°C° 0.5 mm 6 mps 710 mmHg 70%
    11:00 +33°C° 0.5 mm 6 mps 710 mmHg 66%
    12:00 +33°C° 1 mm 5 mps 710 mmHg 64%
    13:00 +33°C° 1 mm 5 mps 709 mmHg 63%
    14:00 +34°C° 1 mm 4 mps 709 mmHg 61%
    15:00 +33°C° 1.2 mm 3 mps 708 mmHg 64%
    16:00 +32°C° 1.2 mm 2 mps 708 mmHg 67%
    17:00 +31°C° 1.2 mm 1 mps 708 mmHg 70%
    18:00 +31°C° 0.3 mm 1 mps 708 mmHg 72%
    19:00 +30°C° 0.3 mm 1 mps 708 mmHg 73%
    20:00 +29°C° 0.3 mm 1 mps 708 mmHg 74%
    21:00 +28°C° 0 mm 1 mps 709 mmHg 75%
    22:00 +28°C° 0 mm 2 mps 709 mmHg 76%
    23:00 +28°C° 0 mm 2 mps 709 mmHg 77%

    Day after tomorrow, 19 July, Friday

    Time Temperature Precipitation Wind Pressure Humidity
    00:00 +27°C° 0 mm 2 mps 708 mmHg 78%
    01:00 +27°C° 0 mm 2 mps 708 mmHg 79%
    02:00 +27°C° 0 mm 2 mps 707 mmHg 80%
    03:00 +26°C° 0.1 mm 2 mps 707 mmHg 81%
    04:00 +26°C° 0.1 mm 2 mps 708 mmHg 81%
    05:00 +26°C° 0.1 mm 2 mps 708 mmHg 82%
    06:00 +27°C° 0.1 mm 3 mps 708 mmHg 80%
    07:00 +28°C° 0.1 mm 4 mps 709 mmHg 78%
    08:00 +29°C° 0.1 mm 5 mps 709 mmHg 76%
    09:00 +29°C° 0.9 mm 5 mps 709 mmHg 75%
    10:00 +30°C° 0.9 mm 5 mps 709 mmHg 73%
    11:00 +30°C° 0.9 mm 6 mps 709 mmHg 72%
    12:00 +32°C° 2.2 mm 5 mps 709 mmHg 71%
    13:00 +32°C° 2.2 mm 5 mps 708 mmHg 70%
    14:00 +32°C° 2.2 mm 5 mps 707 mmHg 69%
    15:00 +30°C° 2.4 mm 5 mps 707 mmHg 74%
    16:00 +29°C° 2.4 mm 5 mps 707 mmHg 79%
    17:00 +28°C° 2.4 mm 4 mps 706 mmHg 84%
    18:00 +27°C° 1.5 mm 4 mps 707 mmHg 85%
    19:00 +26°C° 1.5 mm 3 mps 707 mmHg 87%
    20:00 +26°C° 1.5 mm 2 mps 707 mmHg 89%
    21:00 +26°C° 1.5 mm 2 mps 707 mmHg 89%
    22:00 +25°C° 1.5 mm 2 mps 708 mmHg 89%
    23:00 +25°C° 1.5 mm 2 mps 708 mmHg 89%

    20 July, Saturday

    Time Temperature Precipitation Wind Pressure Humidity
    00:00 +25°C° 1.6 mm 2 mps 707 mmHg 91%
    01:00 +25°C° 1.6 mm 2 mps 707 mmHg 92%
    02:00 +25°C° 1.6 mm 2 mps 707 mmHg 94%
    03:00 +25°C° 1.4 mm 1 mps 707 mmHg 94%
    04:00 +25°C° 1.4 mm 1 mps 707 mmHg 95%
    05:00 +25°C° 1.4 mm 1 mps 707 mmHg 95%
    06:00 +26°C° 1 mm 1 mps 708 mmHg 93%
    07:00 +26°C° 1 mm 2 mps 708 mmHg 91%
    08:00 +27°C° 1 mm 2 mps 709 mmHg 89%
    09:00 +28°C° 0.7 mm 2 mps 709 mmHg 85%
    10:00 +29°C° 0.7 mm 2 mps 709 mmHg 81%
    11:00 +30°C° 0.7 mm 2 mps 708 mmHg 77%
    12:00 +31°C° 1 mm 3 mps 708 mmHg 75%
    13:00 +31°C° 1 mm 3 mps 707 mmHg 73%
    14:00 +33°C° 1 mm 4 mps 707 mmHg 71%
    15:00 +32°C° 1 mm 4 mps 707 mmHg 73%
    16:00 +31°C° 1 mm 3 mps 706 mmHg 75%
    17:00 +31°C° 1 mm 3 mps 706 mmHg 77%
    18:00 +30°C° 1.8 mm 3 mps 707 mmHg 79%
    19:00 +29°C° 1.8 mm 2 mps 707 mmHg 81%
    20:00 +28°C° 1.8 mm 1 mps 707 mmHg 83%
    21:00 +28°C° 2.1 mm 1 mps 708 mmHg 84%
    22:00 +28°C° 2.1 mm 2 mps 708 mmHg 85%
    23:00 +27°C° 2.1 mm 2 mps 708 mmHg 85%

    21 July, Sunday

    Time Temperature Precipitation Wind Pressure Humidity
    00:00 +27°C° 1.4 mm 1 mps 707 mmHg 86%
    01:00 +27°C° 1.4 mm 1 mps 707 mmHg 87%
    02:00 +27°C° 1.4 mm 1 mps 706 mmHg 88%
    03:00 +26°C° 0 mm 1 mps 706 mmHg 89%
    04:00 +26°C° 0 mm 1 mps 707 mmHg 91%
    05:00 +26°C° 0 mm 1 mps 707 mmHg 93%
    06:00 +27°C° 0 mm 1 mps 707 mmHg 90%
    07:00 +28°C° 0 mm 1 mps 708 mmHg 88%
    08:00 +28°C° 0 mm 2 mps 708 mmHg 85%
    09:00 +29°C° 0.7 mm 2 mps 708 mmHg 81%
    10:00 +30°C° 0.7 mm 2 mps 708 mmHg 77%
    11:00 +31°C° 0.7 mm 2 mps 708 mmHg 73%
    12:00 +32°C° 0.8 mm 1 mps 708 mmHg 71%
    13:00 +32°C° 0.8 mm 1 mps 707 mmHg 68%
    14:00 +33°C° 0.8 mm 1 mps 707 mmHg 65%
    15:00 +32°C° 1 mm 1 mps 706 mmHg 68%
    16:00 +32°C° 1 mm 1 mps 706 mmHg 71%
    17:00 +32°C° 1 mm 1 mps 706 mmHg 74%
    18:00 +30°C° 0.4 mm 1 mps 706 mmHg 77%
    19:00 +29°C° 0.4 mm 1 mps 707 mmHg 81%
    20:00 +28°C° 0.4 mm 1 mps 707 mmHg 84%
    21:00 +28°C° 1 mm 1 mps 707 mmHg 85%
    22:00 +28°C° 1 mm 2 mps 707 mmHg 86%
    23:00 +28°C° 1 mm 2 mps 707 mmHg 88%

    22 July, Monday

    Time Temperature Precipitation Wind Pressure Humidity
    00:00 +27°C° 0.2 mm 2 mps 707 mmHg 89%
    01:00 +27°C° 0.2 mm 2 mps 706 mmHg 89%
    02:00 +27°C° 0.2 mm 2 mps 706 mmHg 90%
    03:00 +27°C° 0.2 mm 2 mps 706 mmHg 91%
    04:00 +27°C° 0.2 mm 2 mps 706 mmHg 92%
    05:00 +26°C° 0.2 mm 1 mps 706 mmHg 92%
    06:00 +27°C° 0 mm 1 mps 707 mmHg 88%
    07:00 +29°C° 0 mm 1 mps 707 mmHg 83%
    08:00 +30°C° 0 mm 1 mps 708 mmHg 79%
    09:00 +31°C° 0.1 mm 2 mps 708 mmHg 75%
    10:00 +32°C° 0.1 mm 2 mps 708 mmHg 70%
    11:00 +34°C° 0.1 mm 2 mps 708 mmHg 66%
    12:00 +34°C° 0.9 mm 2 mps 707 mmHg 65%
    13:00 +34°C° 0.9 mm 2 mps 706 mmHg 64%
    14:00 +35°C° 0.9 mm 2 mps 706 mmHg 63%
    15:00 +34°C° 0.8 mm 2 mps 706 mmHg 65%
    16:00 +34°C° 0.8 mm 2 mps 705 mmHg 68%
    17:00 +34°C° 0.8 mm 2 mps 705 mmHg 70%
    18:00 +31°C° 0.4 mm 2 mps 706 mmHg 74%
    19:00 +30°C° 0.4 mm 1 mps 706 mmHg 78%
    20:00 +29°C° 0.4 mm 1 mps 706 mmHg 82%
    21:00 +29°C° 1.4 mm 1 mps 706 mmHg 83%
    22:00 +28°C° 1.4 mm 1 mps 706 mmHg 85%
    23:00 +28°C° 1.4 mm 1 mps 706 mmHg 86%
    Show more